IRIDIUM 162

Last updated on Tue Sep 22 2026 00:03:21 GMT+0000 (Coordinated Universal Time)

1 43482U 18047G 26264.39388953 .00000210 00000+0 56544-4 0 9999 2 43482 86.4471 48.0992 0002270 91.6143 268.5318 14.43276632439007
UTC large
Height (km)
Speed (km/s)
/
Latitude / Longitude
Inclination (degrees)
Orbital Period (minutes)
Azimuth
Elevation
Range (km)
Doppler Factor

Next 0 passes for location: London (51.5072 / 0.1276)

No passes found over London.
IRIDIUM 162